Weather in Khongurey

Russia / Nenets Autonomous Okrug     67°33′27″N   51°57′19″E
temp.,
°C
wind,
m/s
gust,
m/s
humid.,
%
clouds,
%
prec.,
mm/h
press.,
hPa
HPBL,
m
27 february, sat
sat2700:00−18s6119598 0.1 1010317
03:00−19s6119598 0.1 1010246
06:00−21s6119781 0.0 1010184
09:00−21s6109575 0.0 1011246
12:00−19s7109295 0.0 1010362
15:00−18s6109297 0.0 1010373
18:00−17s6996100 0.3 1009362
21:00−16s5896100 0.9 1009323
28 february, sun
sun2800:00−15ssw5896100 0.6 1008339
03:00−16ssw469697 0.9 1008141
06:00−18ssw459798 0.1 100875
09:00−19ssw469795 0.1 1008106
12:00−15ssw469580 0.1 1009224
15:00−14s369586 0.1 1009158
18:00−15s459781 0.0 100957
21:00−12ssw469687 0.1 1009115
1 march, mon
mon100:00−11sw589596 0.2 1007143
03:00−12ssw6109698 0.2 1006194
06:00−10ssw81294100 0.1 1002303
09:00−8ssw91493100 0.5 999492
12:00−6ssw101494100 0.9 994632
15:00−5ssw91495100 2.3 992645
18:00−4ssw81396100 2.0 988521
21:000wnw4896100 3.1 988289
2 march, tue
tue200:000w4798100 0.1 987268
03:00−5w469598 0.4 98899
06:00−9sw449573 0.0 98849
09:00−7sw469483 0.1 98891
12:00−6sw599647 0.0 988286
15:00−4ssw589473 0.1 987544
18:00−5s5996100 0.3 987218
21:00−6sse4796100 0.5 988175
3 march, wed
wed300:00−6ese1297100 0.6 98923
03:00−7nnw3596100 1.1 990108
06:00−8nnw61194100 0.6 991382
09:00−7nw6129399 0.9 992578
12:00−8nw7109399 0.3 993442
15:00−9wnw61093100 0.4 994330
18:00−10wnw5894100 0.0 993179
21:00−13w459668 0.0 99444